This demonstration page uses our WeatherBlox Daily Observations layout. Learn more.

Left ArrowRight Arrow

41.86663, -103.66717

Hourly Observations for June 21, 2022

Temp ( °F °C ) Dew Point ( °F °C ) Humidity (%) Winds ( mph kmh ) Pressure ( in mb ) Visibility ( mi km ) Precip ( " mm )
12:53 am 00:53 Clear 55 12.8 36 2.2 49 49 N 3 6 30.06 1018 10 16 0.00 0.00
1:53 am 01:53 Clear 50 10 39 3.9 66 66 NE 5 7 30.08 1019 10 16 0.00 0.00
2:53 am 02:53 Clear 50 10 36 2.2 59 59 WSW 3 6 30.14 1021 10 16 0.00 0.00
3:53 am 03:53 Clear 49 9.4 37 2.8 64 64 Calm 30.14 1021 10 16 0.00 0.00
4:53 am 04:53 Clear 52 11.1 34 1.1 50 50 W 5 7 30.16 1021 10 16 0.00 0.00
5:53 am 05:53 Sunny 46 7.8 38 3.3 73 73 N 6 9 30.19 1022 10 16 0.00 0.00
6:53 am 06:53 Sunny 53 11.7 37 2.8 55 55 NW 5 7 30.20 1023 10 16 0.00 0.00
7:53 am 07:53 Sunny 62 16.7 38 3.3 41 41 WNW 8 13 30.21 1023 10 16 0.00 0.00
8:53 am 08:53 Sunny 68 20 35 1.7 30 30 WNW 14 22 30.22 1023 10 16 0.00 0.00
9:53 am 09:53 Sunny 71 21.7 35 1.7 27 27 NW 15 24 30.21 1023 10 16 0.00 0.00
10:53 am 10:53 Sunny 74 23.3 35 1.7 24 24 NW 13 20 30.20 1023 10 16 0.00 0.00
11:53 am 11:53 Sunny 77 25 32 0 19 19 WNW 12 19 30.21 1023 10 16 0.00 0.00
12:53 pm 12:53 Sunny 79 26.1 31 -0.6 17 17 NW 9 15 30.21 1023 10 16 0.00 0.00
1:53 pm 13:53 Sunny 82 27.8 31 -0.6 16 16 NW 13 20 30.19 1022 10 16 0.00 0.00
2:53 pm 14:53 Sunny 84 28.9 31 -0.6 15 15 WNW 8 13 30.18 1022 10 16 0.00 0.00
3:53 pm 15:53 Sunny 83 28.3 28 -2.2 13 13 VRB 7 11 30.16 1022 10 16 0.00 0.00
4:53 pm 16:53 Sunny 85 29.4 31 -0.6 14 14 VRB 5 7 30.15 1021 10 16 0.00 0.00
5:53 pm 17:53 Sunny 83 28.3 33 0.6 17 17 SE 15 24 30.16 1021 10 16 0.00 0.00
6:53 pm 18:53 Sunny 81 27.2 34 1.1 18 18 SE 9 15 30.16 1021 10 16 0.00 0.00
7:53 pm 19:53 Sunny 78 25.6 36 2.2 22 22 SE 9 15 30.15 1021 10 16 0.00 0.00
8:53 pm 20:53 Clear 70 21.1 41 5 35 35 ESE 7 11 30.16 1021 10 16 0.00 0.00
9:53 pm 21:53 Clear 65 18.3 42 5.6 43 43 SE 7 11 30.18 1022 10 16 0.00 0.00
10:53 pm 22:53 Clear 61 16.1 42 5.6 50 50 E 8 13 30.18 1022 10 16 0.00 0.00
11:53 pm 23:53 Clear 63 17.2 41 5 45 45 E 7 11 30.17 1022 10 16 0.00 0.00

Powered by AerisWeather